Regional Weather Roundup
Issued by NWS

Home | Current Version | Previous Version | Text Only | Print | Product List | Glossary Off
Versions: 1 2 3 4 5 6 7 8 9 10 11 12 13 14 15 16 17 18 19 20 21 22 23 24 25 26 27 28 29 30 31 32 33 34 35 36 37 38 39 40 41 42 43 44 45 46 47 48 49 50

000
ASUS43 KDMX 262107
RWRIA

WEATHER ROUNDUP FOR IOWA
NATIONAL WEATHER SERVICE DES MOINES IA
300 PM CST FRI DEC 26 2014

NOTE: "FAIR" INDICATES FEW OR NO CLOUDS BELOW 12,000 FEET WITH NO
SIGNIFICANT WEATHER AND/OR OBSTRUCTIONS TO VISIBILITY.

* - THESE STATIONS ARE NOT NWS STATIONS...THUS NOT UNDER NWS
QUALITY CONTROL.  THEY ALSO DO NOT REPORT WEATHER SUCH
AS PRECIPITATION OR FOG.

IAZ001>003-012>014-020>022-031>034-043>046-262200-
   NORTHWEST IOWA

CITY           SKY/WX    TMP DP  RH WIND       PRES   REMARKS
CARROLL *      CLOUDY    32  32 100 N12       29.96R FOG     WCI  23
CHEROKEE *     CLOUDY    30  28  93 N8G21     29.99S WCI  23
DENISON *      CLOUDY    32  32 100 N10G16    29.96R FOG     WCI  24
LE MARS *      CLOUDY    30  28  93 N16G23    30.00F WCI  19
ORANGE CITY *  CLOUDY    30  25  80 N14       29.99F WCI  20
SHELDON *      CLOUDY    28  28 100 N15       30.00R WCI  17
SIOUX CITY     CLOUDY    32  27  81 N13       30.01S WCI  22
SPENCER        CLOUDY    31  26  82 N13       30.00R WCI  21
STORM LAKE *   CLOUDY    30  30 100 N15       29.96S WCI  19
$$

IAZ055>058-069>071-079>083-090>094-262200-
   SOUTHWEST IOWA

CITY           SKY/WX    TMP DP  RH WIND       PRES   REMARKS
ATLANTIC *     CLOUDY    34  32  93 N7G15     29.99R WCI  28
AUDUBON *      CLOUDY    32  27  80 N12       29.97R HAZE    WCI  23
CLARINDA *     CLOUDY    36  34  93 NE7       29.98R WCI  30
COUNCIL BLFS * CLOUDY    32  32 100 N10       29.96R WCI  24
CRESTON *      CLOUDY    32  32 100 N9        29.95R FOG     WCI  24
HARLAN  *      CLOUDY    32  32 100 N12       30.01R FOG     WCI  23
LAMONI         CLOUDY    40  33  76 N5        29.93R
RED OAK *      CLOUDY    34  34 100 N10       29.97R FOG     WCI  26
SHENANDOAH *   CLOUDY    36  34  93 N12       29.96F FOG     WCI  27
$$

IAZ047>049-059>061-072>074-084-262200-
   CENTRAL IOWA

CITY           SKY/WX    TMP DP  RH WIND       PRES   REMARKS
AMES           CLOUDY    34  31  88 NE13      29.92F FOG     WCI  25
ANKENY *       CLOUDY    34  32  93 N9        29.94F FOG     WCI  26
CHARITON *     SUNNY     37  32  81 N6        29.93S WCI  33
DES MOINES     CLOUDY    35  31  85 N8        29.94S FOG     WCI  29
GRINNELL*      CLOUDY    37  34  87 NW7       29.94R WCI  32
KNOXVILLE *    SUNNY     36  32  87 N8        29.91F WCI  29
MARSHALLTOWN   CLOUDY    34  32  92 N8        29.94R WCI  27
PELLA *        CLOUDY    37  34  87 N8        29.94S WCI  31
PERRY *        CLOUDY    34  34 100 N7        29.95R FOG     WCI  28
$$

IAZ004>006-015-016-023>025-035-036-262200-
   NORTH CENTRAL IOWA

CITY           SKY/WX    TMP DP  RH WIND       PRES   REMARKS
ALGONA *       CLOUDY    32  32 100 N16G23    29.97R FOG     WCI  21
CLARION *      CLOUDY    32  32 100 N14       29.95R FOG     WCI  22
ESTHERVILLE    CLOUDY    30  27  88 N21       29.96F WCI  17
FORT DODGE *   CLOUDY    32  28  86 N10       29.96S WCI  24
MASON CITY     CLOUDY    33  31  92 N14       29.97R FOG     WCI  23
FOREST CITY *  CLOUDY    32  32 100 N10       29.96R FOG     WCI  24
IOWA FALLS *   CLOUDY    34  32  93 N8        29.95R FOG     WCI  27
$$

IAZ007>011-017>019-026>030-037>042-050>054-066-262200-
   NORTHEAST IOWA

CITY           SKY/WX    TMP DP  RH WIND       PRES   REMARKS
CEDAR RAPIDS   CLOUDY    44  35  70 SW6       29.92S
CHARLES CITY * CLOUDY    34  34 100 N14       29.94F FOG     WCI  24
CLINTON *      MOSUNNY   52  36  54 W7        29.98R
DECORAH *      MOSUNNY   37  34  87 N6        29.93R WCI  33
DUBUQUE        CLOUDY    43  34  70 S5        29.94R
MONTICELLO *   SUNNY     45  36  70 S6        29.94R
OELWEIN *      PTSUNNY   41  34  75 CALM      29.93R
WATERLOO       CLOUDY    37  33  85 NW10      29.93S WCI  30
$$

IAZ064-065-067-068-078-262200-
   EAST CENTRAL IOWA

CITY           SKY/WX    TMP DP  RH WIND       PRES   REMARKS
DAVENPORT      MOSUNNY   51  35  54 S12       29.96R
IOWA CITY      CLOUDY    47  36  65 W5        29.95R
MT. PLEASANT * MOSUNNY   54  39  58 S9        29.94S
MUSCATINE *    MOSUNNY   52  37  58 S6G12     29.95S
QUAD CITIES    SUNNY     52  37  56 SW8       29.95R
$$

IAZ062-063-075>077-085>089-095>099-262200-
   SOUTHEAST IOWA

CITY           SKY/WX    TMP DP  RH WIND       PRES   REMARKS
BURLINGTON     MOSUNNY   54  41  61 S12       29.95R
FAIRFIELD *    SUNNY     50  37  62 SW5       29.93R
FORT MADISON *   N/A     55  43  62 S9        29.96R
KEOKUK *       PTSUNNY   55  41  58 SW9G16    29.94S
OSKALOOSA *    PTSUNNY   43  36  75 N6        29.94R
CENTERVILLE *  SUNNY     48  39  71 SW6       29.93R
OTTUMWA        CLOUDY    48  37  65 W6        29.92S
WASHINGTON *   SUNNY     50  39  66 SW6       29.93S
$$

ABBREVIATIONS USED IN REMARKS
   TC - TEMPERATURES IN CELSIUS
  WCI - WIND CHILL INDEX
   HX - HEAT INDEX
  VSB - VISIBILITY
$$



USA.gov is the U.S. government's official web portal to all federal, state and local government web resources and services.